Regional Weather Roundup
Issued by NWS

Home | Current Version | Previous Version | Graphics & Text | Print | Product List | Glossary On
Versions: 1 2 3 4 5 6 7 8 9 10 11 12 13 14 15 16 17 18 19 20 21 22 23 24 25 26 27 28 29 30 31 32 33 34 35 36 37 38 39 40 41 42 43 44 45 46 47 48 49 50
454
ASUS44 KLIX 012207
RWRLA
LOUISIANA WEATHER ROUNDUP
NATIONAL WEATHER SERVICE NEW ORLEANS LA
500 PM CDT WED APR 01 2015

NOTE: "FAIR" INDICATES FEW OR NO CLOUDS BELOW 12,000 FEET WITH NO
      SIGNIFICANT WEATHER AND/OR OBSTRUCTIONS TO VISIBILITY.
      SKY/WX - SKY CONDITION AND SIGNIFICANT WEATHER.
      TMP - AIR TEMPERATURE.    DP   - DEWPOINT TEMPERATURE.
      RH  - RELATIVE HUMIDITY.  PRES - PRESSURE.
      HX  - HEAT INDEX.         WCI  - WIND CHILL INDEX.

*  THESE STATIONS ARE NOT NWS OR FAA STATIONS AND ARE NOT UNDER
   NWS QUALITY CONTROL.

LAZ040-048-061>063-065-066-069-012300-
SOUTHEAST LOUISIANA

CITY           SKY/WX    TMP DP  RH WIND       PRES   REMARKS
N.O. AUDUBON     N/A     78  68  71 MISG        N/A
N.O. INTL ARPT CLOUDY    77  64  64 S8        30.03S
N.O. LAKEFRONT CLOUDY    79  61  53 SW16      30.03F
SLIDELL        CLOUDY    78  65  63 S10       30.02F
BATON ROUGE    CLOUDY    79  59  50 S15       30.00F
BOOTHVILLE     CLOUDY    76  66  71 S8        30.05F
BELLE CHASSE   CLOUDY    76  64  66 S12       30.03S
BOGALUSA*        N/A     81  55  40 SW9       30.03S
GALLIANO*      CLOUDY    78  65  63 S9        30.05S
NEW ROADS*     FAIR      78  59  52 S9        29.99F
GONZALES*      FAIR      79  63  57 SW7       30.01S
HAMMOND*       CLOUDY    79  59  50 S10       30.02F
HOUMA*         NOT AVBL
PORT FOURCHON* CLEAR     75  68  78 E8        30.08S

$$

LAZ041-044-053-054-012300-
SOUTHWEST LOUISIANA

CITY           SKY/WX    TMP DP  RH WIND       PRES   REMARKS
LAKE CHARLES   CLOUDY    76  65  68 S13       29.97F
LAFAYETTE      CLOUDY    77  64  64 S12G20    30.00F
PATTERSON      CLOUDY    75  64  69 S9        30.04F
SALT POINT       N/A     75  68  78 SE6       30.01F
NEW IBERIA     CLOUDY    78  65  63 S16       30.02F
CHENAULT AIRPK PTSUNNY   77  64  65 S15G21    29.98F

$$

LAZ027-028-012300-
CENTRAL LOUISIANA

CITY           SKY/WX    TMP DP  RH WIND       PRES   REMARKS
FORT POLK      CLOUDY    71  69  91 S12       29.94F
ALEXANDRIA INT CLOUDY    78  63  59 S10G20    29.93F
ALEXANDRIA     CLOUDY    81  63  54 S7        29.95F

$$

LAZ001-002-012300-
NORTHWEST LOUISIANA

CITY           SKY/WX    TMP DP  RH WIND       PRES   REMARKS
SHREVEPORT     PTSUNNY   83  60  45 S14       29.88F
BARKSDALE AFB  PTSUNNY   83  60  46 S13       29.88F
DTN SHREVEPORT PTSUNNY   80  60  50 SW10      29.88F

$$

LAZ014-016-012300-
NORTHEAST LOUISIANA

CITY           SKY/WX    TMP DP  RH WIND       PRES   REMARKS
MONROE         PTSUNNY   82  59  45 SW14      29.93F
TALLULAH       PTSUNNY   80  55  42 S13       29.96F

$$




USA.gov is the U.S. government's official web portal to all federal, state and local government web resources and services.